KA7RLM Weather Reports


time (UTC)temp
C
wind
direction
speed
KPH
gust
KPH
rain 1hr
cm
rain 24hr
cm
rain mn
cm
humidity
%
barometer
mb
20260505212025 17 264 4.8 8.0 0.00 0.00 0.00 71 1016.8
20260505211027 16 251 4.8 8.0 0.00 0.00 0.00 72 1016.8
20260505210031 17 210 3.2 8.0 0.00 0.00 0.00 71 1016.9
20260505205016 16 291 3.2 6.4 0.00 0.00 0.00 74 1016.9
20260505204039 16 248 4.8 8.0 0.00 0.00 0.00 73 1016.9
20260505203021 16 184 4.8 8.0 0.00 0.00 0.00 74 1016.9
20260505202026 16 205 1.6 8.0 0.00 0.00 0.00 74 1016.9
20260505201022 16 208 4.8 6.4 0.00 0.00 0.00 73 1016.9
20260505200020 16 195 4.8 8.0 0.00 0.00 0.00 74 1016.9
20260505195017 16 207 3.2 8.0 0.00 0.00 0.00 75 1016.9
20260505194016 15 234 4.8 6.4 0.00 0.00 0.00 75 1016.9
20260505193018 16 233 4.8 8.0 0.00 0.00 0.00 75 1016.9
20260505192022 16 201 3.2 4.8 0.00 0.00 0.00 75 1016.9
20260505191021 15 221 3.2 4.8 0.00 0.00 0.00 76 1016.9
20260505190024 15 225 4.8 8.0 0.00 0.00 0.00 77 1016.9
20260505185028 15 159 1.6 3.2 0.00 0.00 0.00 76 1016.9
20260505184031 15 186 3.2 6.4 0.00 0.00 0.00 78 1016.9
20260505183034 15 172 4.8 8.0 0.00 0.00 0.00 80 1016.9
20260505182019 15 229 3.2 6.4 0.00 0.00 0.00 79 1016.9
20260505181022 14 225 4.8 8.0 0.00 0.00 0.00 79 1016.9
20260505180024 14 204 3.2 6.4 0.00 0.00 0.00 80 1016.9
20260505175029 14 208 4.8 6.4 0.00 0.00 0.00 80 1016.8
20260505174031 14 219 4.8 6.4 0.00 0.00 0.00 81 1016.8
20260505173016 14 185 4.8 6.4 0.00 0.00 0.00 81 1016.8
20260505172020 14 221 1.6 4.8 0.00 0.00 0.00 81 1016.7
20260505171023 14 166 1.6 6.4 0.00 0.00 0.00 82 1016.7
20260505170027 13 212 4.8 6.4 0.00 0.00 0.00 81 1016.6
20260505165111 13 232 3.2 6.4 0.00 0.00 0.00 82 1016.5
20260505164032 13 210 3.2 4.8 0.00 0.00 0.00 81 1016.4
20260505163018 13 249 4.8 6.4 0.00 0.00 0.00 82 1016.4
20260505162041 13 221 4.8 8.0 0.00 0.00 0.00 83 1016.4
20260505161038 13 181 3.2 4.8 0.00 0.00 0.00 84 1016.4
20260505153021 13 191 4.8 9.7 0.00 0.00 0.00 86 1016.3
20260505152044 13 189 1.6 6.4 0.00 0.00 0.00 87 1016.2
20260505151027 13 182 3.2 6.4 0.00 0.00 0.00 87 1016.2
20260505125023 12 217 4.8 8.0 0.00 0.00 0.00 88 1014.9
20260505124021 12 216 4.8 8.0 0.00 0.00 0.00 88 1014.9
20260505123018 12 215 3.2 6.4 0.00 0.00 0.00 89 1014.9
20260505122016 12 203 0.0 1.6 0.00 0.00 0.00 89 1014.7
20260505121026 12 0.0 0.0 0.00 0.00 0.00 89 1014.7
20260505120049 12 217 3.2 6.4 0.00 0.00 0.00 89 1014.7
20260505115032 12 180 1.6 4.8 0.00 0.00 0.00 89 1014.7
20260505114017 12 203 1.6 4.8 0.00 0.00 0.00 89 1014.7
20260505113100 12 185 1.6 4.8 0.00 0.00 0.00 89 1014.7
20260505112059 12 245 1.6 4.8 0.00 0.00 0.00 89 1014.7
20260505111016 12 159 3.2 6.4 0.00 0.00 0.00 89 1014.4
20260505102036 12 209 6.4 11.3 0.00 0.00 0.00 90 1014.4
20260505101019 12 206 4.8 8.0 0.00 0.00 0.00 90 1014.2
20260505100023 12 210 6.4 9.7 0.00 0.00 0.00 90 1014.2
20260505095025 12 188 3.2 6.4 0.00 0.00 0.00 90 1014.0
20260505094028 12 202 3.2 8.0 0.00 0.00 0.00 91 1013.9
20260505093032 12 203 1.6 4.8 0.00 0.00 0.00 91 1013.9
20260505092017 12 208 3.2 4.8 0.00 0.00 0.00 91 1013.9
20260505091020 12 215 1.6 6.4 0.00 0.00 0.00 92 1013.9
20260505090023 12 210 1.6 6.4 0.00 0.00 0.00 93 1013.9
20260505085020 12 189 1.6 4.8 0.00 0.00 0.00 94 1013.8
20260505084018 11 0.0 0.0 0.00 0.00 0.00 94 1013.7
20260505083017 11 0.0 0.0 0.00 0.00 0.00 92 1013.7
20260505082106 12 0.0 0.0 0.00 0.00 0.00 93 1013.7
20260505081030 11 0.0 0.0 0.00 0.00 0.00 92 1013.7
20260505080033 12 0.0 0.0 0.00 0.00 0.00 91 1013.5
20260505075030 12 191 0.0 3.2 0.00 0.00 0.00 91 1013.5
20260505074016 12 0.0 0.0 0.00 0.00 0.00 90 1013.5
20260505073039 12 0.0 3.2 0.00 0.00 0.00 89 1013.2
20260505072047 12 244 3.2 4.8 0.00 0.00 0.00 89 1013.2
20260505071025 12 203 3.2 4.8 0.00 0.00 0.00 88 1013.0
20260505070028 13 209 6.4 8.0 0.00 0.00 0.00 87 1012.9
20260505065026 13 202 6.4 9.7 0.00 0.00 0.00 87 1012.9
20260505064030 13 229 4.8 8.0 0.00 0.00 0.00 86 1012.8
20260505063053 13 204 3.2 6.4 0.00 0.00 0.00 86 1012.7
20260505062018 13 196 3.2 6.4 0.00 0.00 0.00 85 1012.5
20260505061022 13 256 4.8 6.4 0.00 0.00 0.00 84 1012.5
20260505060026 13 243 4.8 6.4 0.00 0.00 0.00 84 1012.3
20260505055029 14 214 4.8 6.4 0.00 0.00 0.00 83 1012.3
20260505054032 14 193 4.8 9.7 0.00 0.00 0.00 82 1012.2
20260505053029 14 240 4.8 6.4 0.00 0.00 0.00 81 1012.2
20260505052027 15 225 4.8 8.0 0.00 0.00 0.00 80 1012.2
20260505051105 15 247 3.2 4.8 0.00 0.00 0.00 79 1011.8
20260505041028 17 216 8.0 11.3 0.00 0.00 0.00 70 1011.2
20260505040032 17 185 6.4 8.0 0.00 0.00 0.00 69 1011.0
20260505035054 17 231 6.4 11.3 0.00 0.00 0.00 67 1010.9
20260505034058 18 235 8.0 12.9 0.00 0.00 0.00 66 1010.8
20260505033022 18 241 8.0 11.3 0.00 0.00 0.00 64 1010.7
20260505032040 19 247 9.7 12.9 0.00 0.00 0.00 62 1010.6
20260505031017 20 216 8.0 11.3 0.00 0.00 0.00 61 1010.4
20260505030015 21 237 8.0 14.5 0.00 0.00 0.00 58 1010.2
20260505025023 21 244 8.0 11.3 0.00 0.00 0.00 57 1010.1
20260505024021 22 227 9.7 14.5 0.00 0.00 0.00 55 1010.0
20260505023045 22 244 11.3 17.7 0.00 0.00 0.00 53 1009.9
20260505022109 23 224 8.0 12.9 0.00 0.00 0.00 52 1009.9
20260505021026 23 236 9.7 14.5 0.00 0.00 0.00 50 1009.8
20260505020030 25 226 9.7 16.1 0.00 0.00 0.00 48 1009.7
20260505015032 25 229 9.7 12.9 0.00 0.00 0.00 48 1009.7
20260505014018 25 238 8.0 14.5 0.00 0.00 0.00 47 1009.7
20260505013041 26 204 6.4 9.7 0.00 0.00 0.00 47 1009.7
20260505012023 26 230 9.7 14.5 0.00 0.00 0.00 47 1009.8
20260505011020 26 202 11.3 14.5 0.00 0.00 0.00 46 1009.8
20260505010018 26 217 9.7 14.5 0.00 0.00 0.00 46 1009.9
20260505005033 26 225 9.7 12.9 0.00 0.00 0.00 46 1009.8
20260505004019 26 246 9.7 14.5 0.00 0.00 0.00 46 1009.8
20260505003143 27 215 8.0 11.3 0.00 0.00 0.00 46 1009.8
20260505002025 27 238 8.0 11.3 0.00 0.00 0.00 45 1009.7
20260505001029 26 220 9.7 12.9 0.00 0.00 0.00 46 1009.7
20260505000027 26 216 6.4 11.3 0.00 0.00 0.00 46 1009.7
20260504235030 26 275 8.0 11.3 0.00 0.00 0.00 45 1009.7
20260504234032 26 216 6.4 8.0 0.00 0.00 0.00 45 1009.7
20260504233017 27 330 8.0 14.5 0.00 0.00 0.00 44 1009.7
20260504232021 26 192 6.4 9.7 0.00 0.00 0.00 44 1009.9
20260504231019 26 272 6.4 9.7 0.00 0.00 0.00 44 1009.9
20260504230017 27 247 8.0 12.9 0.00 0.00 0.00 43 1010.1
20260504225032 27 297 6.4 9.7 0.00 0.00 0.00 42 1010.2
20260504224039 27 250 6.4 9.7 0.00 0.00 0.00 43 1010.2
20260504223021 26 209 9.7 16.1 0.00 0.00 0.00 44 1010.2
20260504222019 26 226 9.7 16.1 0.00 0.00 0.00 45 1010.3
20260504221022 26 242 8.0 11.3 0.00 0.00 0.00 46 1010.3
20260504220045 26 335 6.4 9.7 0.00 0.00 0.00 46 1010.5
20260504215028 26 258 4.8 9.7 0.00 0.00 0.00 46 1010.5
20260504214025 26 346 6.4 9.7 0.00 0.00 0.00 46 1010.5
20260504213018 26 252 6.4 11.3 0.00 0.00 0.00 46 1010.6